Aurora, IL

5:06 PM CDT on June 23, 2017 (GMT -0500)
Aurora Municipal

Weather History for KARR - August, 2013

Change the Weather History Date:

Wednesday, August 7, 2013

  Actual Average Record
Temperature  
Mean Temperature 75 °F 71 °F  
Max Temperature 87 °F 82 °F 94 °F (2001)
Min Temperature 63 °F 60 °F 48 °F (2004)
Degree Days  
Heating Degree Days 0 0  
Month to date heating degree days 1 0  
Since 1 June heating degree days 61 50  
Since 1 July heating degree days 17 9  
Cooling Degree Days 10 6  
Month to date cooling degree days 34 42  
Year to date cooling degree days 479 453  
Since 1 June cooling degree days 399 412  
Growing Degree Days 26 (Base 50)    
Moisture  
Dew Point 69 °F    
Average Humidity 74    
Maximum Humidity 93    
Minimum Humidity 55    
Precipitation  
Precipitation T in 0.16 in 0.75 in (2009)
Month to date precipitation 0.38 1.15  
Year to date precipitation 23.24 22.23  
Sea Level Pressure  
Sea Level Pressure 29.85 in    
Wind  
Wind Speed 7 mph (West)    
Max Wind Speed 16 mph    
Max Gust Speed 21 mph    
Visibility 8 miles    
Events Rain    
T = Trace of Precipitation, MM = Missing Value Source: NWS Daily Summary

Daily Weather History Graph

Daily Weather History Graph

Search for Another Location

Airport or City:

Trip Planner

Search our weather history database for the weather conditions in past years. The results will help you decide how hot, cold, wet, or windy it might be!

Date:

Astronomy

Aug. 07, 2013 Rise Set
Actual Time 5:54 AM CDT 8:04 PM CDT
Civil Twilight 5:23 AM CDT 8:34 PM CDT
Nautical Twilight 4:45 AM CDT 9:12 PM CDT
Astronomical Twilight 4:04 AM CDT 9:53 PM CDT
Moon 6:44 AM CDT (8/7) 8:09 PM CDT (8/7)
Length of Visible Light 15h 11m
Length of Day
14h 10m
New Moon, 1% of the Moon is Illuminated
Aug 7
New Moon
Aug 14
First Quarter
Aug 20
Full
Aug 28
Last Quarter
Sep 5
New

Hourly Weather History & Observations

Time (CDT) Temp. Heat Index Dew Point Humidity Pressure Visibility Wind Dir Wind Speed Gust Speed Precip Events Conditions
12:52 AM 73.0 °F - 70.0 °F 90% 29.84 in 7.0 mi South 5.8 mph - N/A   Partly Cloudy
1:52 AM 72.0 °F - 70.0 °F 93% 29.82 in 6.0 mi South 6.9 mph - N/A   Clear
2:52 AM 72.0 °F - 69.1 °F 91% 29.82 in 6.0 mi SSW 4.6 mph - N/A   Scattered Clouds
3:52 AM 71.1 °F - 69.1 °F 93% 29.81 in 5.0 mi SW 3.5 mph - N/A   Clear
4:52 AM 72.0 °F - 70.0 °F 93% 29.81 in 4.0 mi SSW 5.8 mph - N/A   Mostly Cloudy
5:52 AM 71.1 °F - 70.0 °F 96% 29.80 in 4.0 mi SSW 8.1 mph - N/A   Clear
6:43 AM 71.6 °F - 69.8 °F 94% 29.84 in 3.0 mi SW 9.2 mph - N/A   Scattered Clouds
6:52 AM 72.0 °F - 70.0 °F 93% 29.83 in 4.0 mi SW 9.2 mph - N/A   Mostly Cloudy
7:49 AM 73.4 °F - 71.6 °F 94% 29.84 in 5.0 mi SW 4.6 mph - N/A   Scattered Clouds
7:52 AM 75.0 °F - 71.1 °F 87% 29.83 in 5.0 mi SW 5.8 mph - N/A   Scattered Clouds
8:52 AM 75.9 °F - 72.0 °F 87% 29.83 in 6.0 mi West 9.2 mph - N/A   Scattered Clouds
9:52 AM 80.1 °F 84.5 °F 73.9 °F 81% 29.82 in 9.0 mi West 5.8 mph - N/A   Clear
10:29 AM 82.4 °F 88.2 °F 73.4 °F 74% 29.84 in 10.0 mi WNW 5.8 mph - N/A   Mostly Cloudy
10:44 AM 80.6 °F 84.6 °F 71.6 °F 74% 29.85 in 10.0 mi WSW 6.9 mph - N/A   Scattered Clouds
10:52 AM 82.0 °F 87.4 °F 73.0 °F 74% 29.84 in 10.0 mi West 8.1 mph - N/A   Scattered Clouds
11:52 AM 82.9 °F 88.0 °F 72.0 °F 69% 29.84 in 10.0 mi WSW 4.6 mph - N/A   Scattered Clouds
12:52 PM 84.9 °F 90.1 °F 71.1 °F 63% 29.82 in 10.0 mi WNW 8.1 mph - N/A   Clear
1:52 PM 86.0 °F 93.0 °F 73.0 °F 65% 29.82 in 10.0 mi WNW 9.2 mph - N/A   Scattered Clouds
2:52 PM 82.0 °F 87.9 °F 73.9 °F 76% 29.83 in 10.0 mi WNW 9.2 mph - 0.00 in Rain Light Rain
3:52 PM 87.1 °F 91.3 °F 69.1 °F 55% 29.82 in 10.0 mi NW 6.9 mph - 0.00 in   Partly Cloudy
4:52 PM 86.0 °F 89.4 °F 68.0 °F 55% 29.83 in 10.0 mi NW 11.5 mph - N/A   Clear
5:52 PM 84.0 °F 87.0 °F 68.0 °F 58% 29.84 in 10.0 mi North 12.7 mph - N/A   Clear
6:52 PM 81.0 °F 83.0 °F 66.0 °F 60% 29.86 in 10.0 mi North 11.5 mph - N/A   Clear
7:52 PM 77.0 °F - 66.0 °F 69% 29.88 in 10.0 mi NNW 6.9 mph - N/A   Mostly Cloudy
8:52 PM 72.0 °F - 64.0 °F 76% 29.92 in 10.0 mi NE 9.2 mph - N/A   Clear
9:52 PM 69.1 °F - 64.0 °F 84% 29.94 in 10.0 mi NE 8.1 mph - N/A   Clear
10:52 PM 66.9 °F - 63.0 °F 87% 29.95 in 10.0 mi NE 5.8 mph - N/A   Clear
11:52 PM 64.0 °F - 62.1 °F 93% 29.96 in 8.0 mi North 4.6 mph - N/A   Clear